User: anonymous
Location: Coleman
(45.0650°N, 88.0340°W)
Time: 15:14:45
(UTC-05:00)
Language:

Iridium 97 - Orbit

View from above orbital plane
View from above orbital plane
View from above satellite
View from above satellite

Ground track
Ground track

The orbit data is extracted from the following two-line orbital elements,

1 27450U 02031A   14242.45138248  .00000214  00000-0  69488-4 0  3420
2 27450 086.3975 025.9837 0001552 077.7191 282.4179 14.34220272643785
Epoch (UTC): 30 August 2014 10:49:59
Eccentricity: 0.0001552
inclination: 86.3975°
perigee height: 776 km
apogee height: 779 km
right ascension of ascending node: 25.9837°
argument of perigee: 77.7191°
revolutions per day: 14.34220272
mean anomaly at epoch: 282.4179°
orbit number at epoch: 64378

The dashed part of the orbit path shows where the satellite is in the earth's shadow,  

DLR